Theta_e
319 319 319 319 318 318 318 318 318 319 319 319 319 319 319 319 319 319 319 319 319 319 319 319 319 319 319 319 319 320 320 316 314 314 314 314 322 327 344 344 344 342 343 332 322 318 316 317 316 320 320 322 325 325 332 333 342 336 324 319 314 318 319 326 326 329 333 330 333 334 338 336 331 338 339 343 337 337 338 335 336 339 339 341 342 345 346 347
319 318 318 318 318 318 318 318 318 318 318 319 318 318 319 319 319 319 319 319 319 319 319 319 319 319 319 319 320 321 318 315 312 313 314 326 334 332 341 341 354 348 340 325 313 317 314 314 317 320 320 321 330 327 335 328 340 328 323 321 315 323 324 331 331 335 332 331 334 336 340 337 334 338 340 331 332 333 331 332 335 334 338 341 343 344 344 345
318 318 318 318 317 318 318 318 318 318 318 318 318 318 318 319 319 319 319 319 318 318 318 318 319 319 319 319 319 320 316 314 314 311 315 337 336 339 338 342 347 350 328 320 316 318 317 316 319 321 322 321 327 324 330 325 335 328 323 318 320 328 329 334 336 335 338 337 336 336 338 339 337 340 345 331 330 332 327 328 331 332 333 337 340 343 344 344
318 318 317 317 317 317 317 317 318 318 318 318 318 318 318 318 318 318 318 318 318 318 318 318 319 319 319 320 320 318 315 312 311 317 323 347 344 340 342 347 349 347 328 316 317 318 323 321 320 322 323 322 326 329 322 324 321 329 325 320 323 330 327 335 338 338 338 340 337 338 341 336 337 341 339 333 327 331 331 334 332 331 334 337 340 341 343 342
318 317 317 317 318 317 317 317 317 317 318 317 318 318 318 318 318 318 318 318 318 318 318 318 319 319 319 320 320 317 311 305 313 321 326 354 354 342 342 348 350 340 321 315 316 315 316 318 320 320 323 320 325 319 319 321 325 330 324 328 330 331 329 337 339 339 340 343 339 338 335 336 342 342 338 334 326 327 332 334 336 336 337 338 339 340 342 341
318 317 317 318 318 318 318 318 318 317 317 317 317 318 318 318 317 318 318 317 317 317 318 319 319 320 320 320 317 315 309 299 315 317 362 353 350 344 343 349 355 332 316 312 311 314 314 314 315 315 318 319 311 312 313 318 322 319 326 329 331 332 332 339 339 339 341 339 337 336 339 342 340 335 337 336 333 337 346 341 337 338 339 340 341 340 340 340
318 318 318 318 317 317 317 318 317 318 317 317 317 317 317 317 317 317 317 317 317 317 318 319 320 320 319 320 315 313 310 307 315 317 358 354 351 347 346 350 352 318 312 308 308 309 311 312 314 315 317 313 312 310 313 314 319 323 321 329 331 332 336 340 339 341 340 339 337 343 343 338 336 330 341 335 341 344 345 339 338 338 339 340 338 339 339 339
318 318 318 318 318 318 318 317 317 317 317 317 317 317 317 317 317 317 317 317 317 318 318 319 319 320 320 315 313 310 307 308 314 327 353 351 347 347 347 337 324 311 309 307 307 307 311 312 312 319 316 309 309 311 315 312 315 322 324 329 331 333 337 339 341 340 340 340 342 342 337 336 339 338 341 338 343 344 343 341 337 337 338 339 338 338 339 339
317 317 317 317 317 318 318 318 318 318 317 317 317 317 317 317 317 317 317 317 318 318 318 319 319 319 320 315 310 303 302 316 324 343 346 339 339 335 326 323 318 311 308 308 309 309 312 313 316 320 310 312 315 312 313 306 300 323 327 330 330 333 337 339 338 338 339 339 340 337 337 339 340 343 337 341 342 345 346 341 336 336 336 337 337 338 338 338
317 317 317 317 318 317 317 317 317 318 317 317 317 317 317 317 317 317 317 318 318 318 319 319 320 321 316 312 311 300 309 318 334 340 334 333 330 321 317 317 314 309 307 308 309 310 312 317 321 323 319 315 315 310 311 307 301 326 329 330 330 334 337 339 336 337 339 338 339 334 333 335 341 341 328 343 343 345 342 340 337 334 335 336 337 338 338 338
317 317 317 317 317 318 317 317 317 317 317 317 317 317 317 316 317 317 317 318 318 319 319 320 321 318 311 313 305 298 317 330 333 333 330 330 323 316 315 315 312 308 307 308 309 312 314 316 319 321 317 310 312 309 307 307 311 322 329 329 329 333 337 338 337 336 338 336 339 336 332 337 338 341 331 342 345 345 338 338 336 334 334 335 336 336 337 337
317 317 317 317 317 317 317 318 317 317 317 317 316 316 316 317 317 317 317 318 320 321 321 321 320 317 313 311 306 304 320 324 330 329 328 326 321 317 316 315 312 309 307 308 310 314 316 318 321 321 307 310 303 308 305 310 310 324 329 322 325 331 331 336 334 336 337 334 338 337 332 330 334 331 339 343 344 341 339 336 335 335 334 335 335 336 336 335
317 317 317 317 317 318 317 317 317 317 316 316 316 316 316 316 316 317 318 318 321 323 323 323 320 316 313 304 308 318 318 319 318 328 326 323 321 320 318 312 313 309 310 312 314 318 320 321 323 319 317 310 307 302 307 309 309 316 326 323 324 326 325 333 337 337 335 336 338 334 313 319 328 337 341 344 341 338 338 335 335 335 335 334 335 335 335 334
317 317 317 317 317 317 317 317 317 316 316 315 315 316 316 316 317 317 318 319 323 323 323 322 319 315 312 304 313 320 322 319 317 316 321 321 315 313 314 311 311 310 313 315 319 322 323 323 324 322 317 311 306 311 308 306 311 303 321 327 320 318 318 332 335 335 331 337 337 331 313 317 327 335 341 343 341 334 334 335 337 336 335 333 334 334 334 333
317 317 317 317 317 318 317 317 316 316 316 315 315 315 315 315 316 318 320 321 323 323 323 323 318 313 306 305 317 321 339 331 317 316 319 315 312 309 309 310 309 310 312 315 316 319 321 322 321 315 307 314 310 307 300 300 303 305 317 311 319 317 319 329 336 333 328 334 337 327 313 319 326 334 342 342 340 335 333 334 337 335 335 332 334 333 333 332
317 317 317 317 317 317 316 316 316 315 315 315 314 314 315 316 318 320 321 322 322 323 321 314 312 314 307 298 307 329 319 320 319 321 318 317 312 308 310 309 310 310 311 312 316 318 319 321 314 308 310 312 305 299 297 296 296 302 298 304 313 315 319 322 330 334 334 333 334 328 315 322 326 336 341 341 341 336 333 334 334 333 333 332 332 333 332 331
316 317 317 316 317 316 316 315 315 315 315 314 314 314 316 317 320 322 323 324 323 321 318 312 313 315 299 312 321 314 313 315 319 318 316 317 315 313 311 311 309 309 311 312 314 316 317 314 312 311 308 301 300 299 295 292 293 295 299 297 308 315 318 317 328 333 333 331 324 329 321 323 329 336 338 340 340 335 332 333 333 333 333 331 331 332 330 330
317 316 317 316 316 316 316 315 315 315 313 313 313 313 312 317 320 319 319 323 321 319 316 318 314 308 304 315 307 311 316 314 317 315 317 317 317 315 314 312 311 309 310 309 313 311 314 307 306 300 302 302 302 295 292 290 294 295 299 296 303 317 319 318 320 329 331 331 325 325 323 325 331 334 336 339 340 334 331 332 332 331 332 331 330 330 329 330
317 316 316 316 316 316 315 315 315 314 313 313 314 316 317 318 320 314 315 313 312 306 303 305 307 299 297 306 314 315 315 316 317 316 315 317 317 317 317 315 311 308 306 306 305 310 308 303 306 299 295 296 297 297 296 298 300 300 301 299 303 313 314 318 325 332 331 326 323 323 320 326 329 331 335 339 341 335 331 332 332 334 333 332 329 328 328 328
317 316 316 316 316 315 315 315 314 312 312 309 310 313 317 310 309 310 314 315 309 307 306 311 309 313 312 311 310 317 319 317 311 312 317 318 318 314 313 311 310 309 306 302 304 306 308 298 296 297 296 298 300 300 300 301 302 302 301 300 300 313 317 323 326 331 333 325 322 323 325 327 328 331 334 337 338 337 333 332 333 335 334 334 327 327 327 326
316 316 316 315 315 315 315 314 313 312 309 308 308 309 304 304 300 297 306 308 312 313 309 309 312 309 308 313 315 315 309 309 316 314 316 322 316 312 307 308 304 300 302 305 304 307 306 297 297 299 301 300 301 301 300 300 300 300 299 298 297 301 311 322 326 330 331 322 319 325 326 326 328 331 334 336 334 333 332 332 334 335 335 335 331 326 326 326
316 316 315 315 315 314 314 313 313 310 308 308 310 308 307 308 312 311 306 299 304 312 313 312 314 312 316 315 318 318 313 309 309 311 317 319 312 308 306 306 302 298 303 304 304 301 298 296 299 302 303 303 302 301 301 300 299 300 298 297 296 296 314 323 328 329 328 324 320 326 324 325 327 330 334 334 332 333 335 336 335 334 335 335 334 329 328 328
316 315 315 315 314 313 313 312 310 308 308 309 311 312 310 313 315 314 309 303 300 307 310 311 311 312 313 318 316 316 309 306 304 309 312 315 309 307 307 302 302 301 303 303 298 296 295 297 302 305 304 302 301 301 300 299 299 297 296 294 293 302 317 315 324 326 325 323 323 325 323 324 329 331 333 335 333 334 337 337 338 339 335 335 335 333 331 331
316 316 315 315 314 313 313 311 309 307 307 310 310 310 313 315 315 312 306 298 297 304 307 309 312 312 311 308 312 311 307 309 308 307 319 312 306 308 306 304 302 301 299 301 299 297 296 301 306 305 304 302 301 301 299 297 294 297 298 296 297 315 319 319 319 324 324 326 329 325 319 318 324 325 328 333 336 335 336 337 335 336 338 339 341 342 338 332
316 316 316 314 313 312 310 309 305 310 311 309 309 314 314 314 313 312 305 298 299 300 310 310 314 312 311 313 315 308 310 309 309 312 315 312 309 307 304 307 303 299 300 302 301 298 299 304 305 303 303 302 300 299 299 298 294 296 299 299 300 313 314 315 320 320 315 318 325 321 309 310 318 325 326 329 331 333 336 334 333 333 336 335 333 336 341 342
316 316 316 314 314 311 309 310 311 314 312 311 313 317 317 315 314 313 304 296 290 299 302 297 306 300 310 305 314 310 308 301 308 313 315 313 317 309 309 303 305 298 301 300 300 298 300 305 304 302 302 301 300 299 301 300 295 294 295 301 305 313 315 316 316 318 310 309 319 324 309 305 318 321 325 328 327 329 332 333 332 331 335 333 332 335 338 340
316 315 315 314 313 310 306 308 313 312 309 311 314 315 314 312 320 310 300 293 289 298 295 300 300 301 307 306 309 306 292 294 309 314 314 320 311 315 305 300 305 306 306 306 301 294 303 301 302 303 301 300 298 296 301 300 296 294 302 303 303 314 315 314 315 313 311 318 322 320 315 308 309 317 326 329 325 327 329 331 332 331 334 334 333 336 338 339
315 315 313 312 311 310 308 308 309 310 312 314 316 318 318 314 314 308 298 283 283 299 295 296 302 309 307 306 307 300 300 304 300 308 315 315 314 309 306 302 302 301 305 304 291 299 301 300 300 300 300 297 296 298 301 301 299 298 303 304 303 307 313 315 313 311 309 314 310 311 318 307 306 315 324 327 322 324 327 329 331 331 333 335 335 336 338 340
314 314 313 312 311 309 310 308 310 310 316 317 318 318 319 316 309 301 289 284 297 299 309 298 309 307 305 306 302 304 303 305 298 307 314 314 314 309 301 304 305 303 304 301 296 300 303 303 302 302 300 297 300 301 302 302 299 303 304 305 305 305 306 315 312 310 307 309 304 308 312 303 303 313 318 324 322 322 326 329 330 332 333 334 336 338 339 340
314 314 312 311 308 309 308 308 308 314 317 317 317 317 317 309 302 295 288 281 298 289 301 301 299 298 302 298 298 302 300 301 306 311 311 307 309 310 308 310 306 303 300 302 300 302 305 310 313 303 300 302 302 303 303 303 302 304 304 303 302 301 303 303 308 307 306 300 305 311 312 311 301 311 316 317 319 324 327 328 330 332 334 335 336 337 338 339
313 311 311 310 305 314 310 304 309 315 317 317 317 316 311 304 296 287 281 287 298 295 301 298 296 302 297 295 292 299 301 300 306 307 303 307 303 307 307 303 306 300 297 297 297 300 303 304 304 304 309 306 304 302 304 304 305 305 302 300 298 299 301 300 301 303 299 294 303 312 311 312 301 306 315 322 324 328 328 327 328 330 332 333 335 337 338 338
310 309 310 307 310 314 306 305 310 313 313 315 317 310 302 289 293 285 287 300 290 292 294 293 298 297 297 297 296 296 295 299 303 301 298 297 298 298 299 294 296 291 290 292 292 298 299 300 302 304 316 307 303 300 299 302 302 302 300 298 292 291 294 290 297 293 291 291 298 310 312 305 304 308 318 322 323 328 330 330 329 330 332 333 335 337 338 338
309 308 308 310 312 309 311 312 313 313 315 316 313 306 295 287 283 289 290 294 289 295 294 300 296 296 296 296 293 297 299 294 298 300 300 300 297 300 302 302 300 295 289 295 293 293 293 300 302 304 306 310 304 297 297 297 298 300 298 294 292 290 288 287 291 293 291 296 303 309 312 304 307 313 320 321 323 329 331 331 332 332 333 333 335 337 338 338
308 308 307 312 310 313 315 317 317 316 314 315 306 299 295 287 287 312 292 291 293 299 301 298 297 295 295 291 293 297 292 297 297 297 298 296 294 295 298 301 301 299 296 294 292 291 290 291 296 301 297 306 305 299 297 297 299 297 300 299 295 292 291 288 290 288 289 291 299 310 303 300 304 307 321 323 326 328 330 332 334 335 335 335 337 338 338 339
308 308 309 312 313 314 314 316 315 318 316 308 302 294 288 286 291 288 290 291 295 299 297 300 296 293 294 294 296 296 296 293 299 296 294 292 290 293 295 295 301 301 300 292 297 299 295 293 298 304 304 305 304 306 305 302 300 300 301 301 296 296 297 291 294 293 294 293 300 303 301 308 309 318 323 325 326 327 330 330 332 332 333 334 335 335 337 338
308 312 317 314 316 318 318 318 317 316 310 303 297 291 289 293 289 293 291 298 298 296 296 298 296 292 290 290 298 297 300 297 297 294 294 296 297 295 299 300 299 302 297 294 297 293 294 293 301 303 305 304 305 307 307 303 293 297 301 296 297 302 302 297 303 302 301 299 299 307 306 310 316 317 320 323 323 322 327 329 330 329 330 331 331 333 335 339
310 314 308 311 313 315 317 320 320 315 308 301 295 290 293 297 298 296 305 298 299 298 295 289 291 291 291 288 290 295 296 296 296 293 291 299 294 297 298 300 302 301 301 298 295 298 291 292 300 301 300 304 306 306 306 306 302 300 296 297 302 305 302 296 292 295 292 292 299 307 303 303 303 302 318 319 319 323 326 328 328 329 330 330 331 333 332 333
311 313 315 313 315 315 316 321 320 312 304 300 294 307 304 298 301 299 300 299 301 299 293 291 292 296 291 289 291 295 294 292 296 297 294 298 293 301 298 297 303 301 301 302 296 297 295 288 294 301 302 303 307 305 303 307 308 302 299 305 300 294 296 294 295 289 288 291 297 302 303 305 303 304 313 314 318 322 326 326 326 327 329 329 331 332 333 334
313 311 306 312 316 316 315 320 316 308 301 296 295 295 304 300 303 300 302 303 302 297 292 296 293 295 294 290 293 294 296 291 297 294 294 296 292 298 297 299 299 301 302 301 295 297 298 291 292 301 301 302 301 299 293 297 302 306 306 301 303 297 293 293 293 294 292 291 297 298 302 297 306 308 314 315 318 320 320 321 320 321 323 327 330 332 333 335
310 305 303 312 316 317 317 316 308 302 298 294 295 297 300 300 302 301 300 300 300 296 297 296 297 292 294 295 296 291 296 296 293 293 295 297 293 301 297 300 297 300 301 302 299 301 294 298 289 297 303 299 292 295 292 295 297 296 298 295 299 299 299 297 298 295 290 293 296 296 294 299 308 316 318 318 319 320 321 319 320 321 323 324 325 329 332 334
310 305 305 316 316 314 312 306 299 297 296 296 300 300 301 299 301 301 302 303 300 304 298 298 296 293 296 294 295 297 294 293 293 291 294 294 293 290 298 298 299 298 300 300 299 299 294 293 291 295 295 292 294 299 302 299 298 298 296 295 294 298 294 292 289 297 298 297 292 294 290 301 313 321 320 319 321 322 322 318 318 321 322 322 324 324 324 326
305 301 304 314 317 311 304 299 298 299 298 296 294 299 300 308 301 300 302 303 302 300 305 300 301 299 298 299 297 296 295 293 294 292 294 291 296 294 297 298 299 299 296 294 295 300 299 297 297 293 295 294 298 302 304 303 302 301 299 297 299 295 294 290 287 289 303 304 306 301 297 300 315 321 320 321 321 323 323 322 318 319 321 322 323 324 324 325
306 302 314 316 317 310 301 295 306 302 296 298 303 301 301 301 299 300 299 300 300 302 302 299 300 299 300 300 299 297 298 294 295 293 295 296 296 298 298 298 299 299 296 293 299 299 311 296 292 293 295 299 301 303 303 304 302 298 297 300 298 295 297 293 291 295 300 303 299 296 297 303 315 320 320 320 322 322 322 321 319 318 320 321 322 322 322 323
305 305 308 315 314 307 298 293 293 295 294 298 299 299 301 299 298 298 297 298 299 299 299 301 299 302 301 301 299 298 300 292 297 296 294 297 294 301 298 298 299 297 297 294 296 302 295 297 293 288 286 290 295 299 299 303 302 296 295 297 299 299 299 299 300 301 301 302 302 298 295 302 313 319 319 319 319 319 321 320 319 317 318 320 321 322 322 322
307 309 309 312 313 302 297 295 293 292 297 297 297 295 297 297 298 298 297 296 300 298 299 297 300 300 299 302 300 300 301 297 294 300 299 298 297 302 298 298 300 297 301 306 312 312 299 300 296 287 285 285 286 286 289 294 295 298 299 298 299 299 298 298 295 298 291 303 303 299 299 307 313 316 316 317 316 316 317 318 319 319 318 318 319 320 320 322
305 299 305 301 302 300 300 303 296 295 295 298 295 296 297 295 297 299 298 297 299 299 298 299 300 302 300 300 298 299 298 301 299 299 298 295 296 298 299 299 302 304 318 321 314 303 298 302 300 296 292 290 291 294 299 304 296 292 295 297 297 299 299 303 300 299 295 302 300 301 305 306 308 312 312 315 315 314 314 316 316 317 318 319 319 320 321 321
310 302 299 293 301 295 297 295 297 297 295 297 290 296 296 295 297 297 300 295 299 298 299 299 299 300 300 299 299 299 302 301 302 300 300 298 299 298 300 302 302 312 320 310 312 302 297 292 297 299 301 299 299 299 301 300 295 295 295 295 297 297 301 300 301 300 306 301 293 303 308 305 307 311 311 313 314 314 314 315 316 317 318 319 320 322 324 322
295 300 303 307 295 288 290 293 296 296 300 300 295 298 295 294 295 295 299 300 299 300 296 300 302 301 301 300 300 296 299 299 300 299 301 299 299 299 298 302 301 308 308 300 304 298 294 292 298 299 296 298 300 297 298 298 296 296 295 295 296 297 304 301 301 309 305 298 297 304 307 306 308 310 312 313 315 314 314 315 317 318 319 319 319 319 320 323
307 307 305 312 301 303 296 300 300 297 299 303 297 298 295 295 294 297 297 297 298 298 299 295 298 301 302 302 299 296 296 291 293 300 298 297 299 297 295 298 301 302 302 298 298 302 294 291 299 297 296 297 297 298 298 295 294 295 295 297 300 300 305 311 309 307 304 303 307 307 306 307 310 311 313 314 317 317 316 317 317 317 316 317 317 318 319 320
301 303 303 311 310 303 301 298 300 298 295 304 292 296 298 295 293 295 296 296 295 297 302 297 298 299 300 300 299 296 299 299 298 295 299 298 294 297 297 298 293 298 301 299 300 298 294 293 303 296 291 293 297 299 297 295 294 294 297 300 301 302 306 311 311 311 311 308 309 307 306 305 310 313 313 314 316 317 316 315 315 315 315 315 315 316 317 317
308 310 312 307 304 305 308 300 299 296 293 294 292 298 298 296 296 299 297 301 298 298 299 299 300 299 300 297 296 295 297 299 299 299 299 298 292 297 294 296 298 296 298 296 297 298 298 293 297 294 289 292 295 295 295 296 294 295 295 298 301 300 301 304 306 310 307 305 306 306 303 304 309 313 313 313 313 313 312 313 312 312 313 313 313 314 314 314
310 311 316 311 302 313 303 306 300 294 291 296 299 299 299 298 301 302 295 300 301 301 301 301 300 297 295 295 295 298 299 297 298 298 298 298 298 298 298 298 296 296 295 294 298 294 296 293 290 290 286 290 294 295 294 295 292 290 292 295 301 303 307 310 311 314 311 310 305 302 301 307 310 313 310 309 310 309 310 311 310 311 312 312 312 312 313 314
Wind_Speed
15 15 14 14 14 14 14 14 14 14 14 14 14 14 14 15 15 15 15 15 15 15 15 16 15 15 15 15 15 15 13 8 8 2 3 13 7 11 9 7 9 13 13 2 2 6 4 4 5 4 3 3 4 5 8 9 4 3 1 1 3 2 2 3 4 4 5 9 8 6 4 6 8 4 2 7 10 5 6 6 11 13 9 12 15 17 17 18
15 14 14 14 14 14 14 14 14 15 14 15 14 15 15 15 15 15 16 15 15 15 15 15 15 15 15 14 14 15 11 6 7 8 17 6 10 13 13 8 4 11 11 4 6 7 7 5 7 5 3 2 3 4 4 3 7 5 1 1 5 4 3 5 3 10 10 7 9 7 5 8 6 8 5 8 0 3 8 12 13 15 16 14 16 18 18 18
14 14 14 15 15 14 14 15 15 15 15 15 15 15 15 15 15 15 16 16 15 15 14 15 15 15 14 13 13 13 9 6 5 8 14 18 15 14 13 10 5 11 12 5 6 8 9 11 8 7 5 3 3 6 5 3 9 5 5 4 5 4 3 2 7 9 6 10 10 9 6 6 6 3 3 7 9 3 12 13 15 18 19 17 17 18 18 17
14 14 14 15 15 15 15 15 15 15 15 16 15 15 15 15 15 15 15 15 15 15 14 14 14 14 14 14 13 8 5 3 2 4 6 4 20 18 13 12 7 12 8 3 3 5 3 2 4 9 5 6 5 8 5 5 3 3 3 4 5 3 2 3 9 10 12 8 10 8 7 6 2 1 4 12 13 4 5 10 19 22 22 19 17 17 16 17
13 13 14 15 14 15 16 15 15 16 16 16 16 16 15 15 16 15 15 15 15 15 14 13 13 13 13 11 12 5 4 1 1 3 1 6 14 20 16 12 11 8 8 3 0 3 3 3 4 6 5 4 6 3 7 5 6 1 7 6 2 4 4 8 9 12 11 8 8 8 10 5 5 5 7 3 10 8 8 13 17 22 22 21 19 17 14 16
14 14 14 14 15 15 15 15 16 16 16 16 17 16 16 16 16 15 16 17 16 14 13 12 12 12 12 10 6 3 1 1 3 3 6 4 13 20 17 12 13 9 6 2 4 1 3 4 3 5 5 5 3 7 2 7 8 7 3 3 5 5 8 8 11 10 11 8 9 7 5 5 3 7 2 5 2 2 2 9 19 19 20 20 19 17 15 16
13 13 13 13 14 15 16 16 16 16 15 16 16 17 16 16 15 16 17 16 15 13 12 11 10 10 11 10 3 1 1 7 3 9 6 5 12 17 17 12 12 7 5 4 3 3 5 4 4 7 6 6 6 6 10 6 8 7 3 4 5 7 10 10 12 11 7 8 7 5 6 5 8 8 1 4 1 1 1 13 16 18 18 19 18 17 17 16
14 15 14 14 14 14 15 16 16 17 16 16 16 16 17 16 17 18 17 15 14 13 11 10 9 9 7 4 0 1 1 8 12 3 7 9 12 16 16 7 8 6 6 8 7 9 3 5 8 6 7 6 3 6 2 4 7 6 4 7 6 8 12 12 11 9 9 6 7 7 6 5 4 6 2 3 3 2 3 11 17 17 18 16 16 16 15 14
16 16 16 16 15 15 15 15 16 17 17 16 16 17 17 16 18 17 16 14 14 13 11 8 7 6 4 2 0 2 6 8 5 7 9 9 10 12 13 7 6 8 5 5 7 5 5 6 7 7 4 5 6 8 7 2 5 8 10 9 9 9 14 14 12 10 10 5 7 9 7 5 7 7 6 1 2 0 3 10 17 17 18 17 16 16 15 14
17 17 16 17 16 17 16 16 16 17 18 18 17 16 16 17 17 16 15 15 14 13 11 7 6 4 1 1 1 0 6 6 4 9 9 10 10 11 8 7 11 8 5 7 4 5 8 7 7 5 4 6 5 6 5 2 3 5 12 12 12 12 14 15 13 11 9 7 8 9 7 6 1 2 2 1 3 0 5 9 13 17 18 17 16 16 15 15
18 18 17 16 17 16 17 17 17 17 17 18 18 16 17 18 16 15 15 15 14 12 8 5 5 4 1 2 2 6 7 3 4 7 12 11 11 10 11 9 10 9 8 4 9 11 11 10 8 7 2 4 4 5 1 2 3 8 10 10 7 10 10 13 13 12 10 6 6 11 8 5 1 1 5 5 3 2 7 8 12 15 15 15 17 15 12 11
18 18 18 18 17 18 16 16 17 16 17 18 18 17 17 17 16 15 15 14 14 9 5 2 6 4 1 1 2 9 3 4 4 4 9 12 9 12 9 8 11 10 10 8 10 11 9 10 5 3 4 2 2 3 3 2 2 8 15 9 7 9 10 13 15 12 11 6 9 11 10 2 1 5 6 6 5 3 6 8 10 11 12 14 15 12 11 10
19 19 19 18 18 18 18 17 17 18 17 17 18 18 18 17 16 15 14 13 10 9 6 5 7 3 1 1 11 11 8 7 3 2 4 7 5 5 6 6 11 8 11 9 11 11 11 8 5 7 8 3 3 1 4 4 1 8 7 12 8 6 6 10 11 12 9 9 14 9 5 2 0 5 7 6 8 8 3 8 7 5 7 14 13 12 11 9
19 19 20 19 19 19 18 17 17 17 18 17 16 16 18 17 15 14 13 10 13 3 5 9 4 2 0 6 6 3 8 6 7 6 10 7 7 5 7 5 9 7 6 9 7 2 4 3 6 11 5 6 3 2 3 3 1 2 9 9 9 8 5 10 9 13 8 10 14 3 7 4 3 5 6 7 9 14 12 10 3 2 5 11 14 13 11 10
19 19 19 19 20 19 19 18 16 14 17 17 15 16 19 16 15 13 11 9 4 3 8 9 0 1 1 8 7 10 15 5 5 6 10 9 5 3 6 6 7 9 9 8 4 3 4 8 7 6 4 1 1 1 4 2 1 4 10 3 3 7 5 8 8 14 11 8 12 5 4 8 5 7 8 7 9 9 8 8 6 4 3 8 13 13 11 10
17 17 18 19 20 19 18 15 13 14 17 17 17 17 19 16 13 10 7 7 1 7 7 3 2 1 2 8 6 12 5 4 5 10 9 11 8 4 8 7 6 8 6 6 7 6 5 5 7 4 1 2 1 1 2 5 4 1 6 6 8 6 9 8 10 12 9 13 12 4 5 5 2 8 8 9 8 12 9 7 9 8 4 10 9 12 10 10
17 17 17 19 20 19 18 14 14 15 14 16 20 19 15 13 10 6 5 4 3 4 3 1 4 2 1 3 7 6 2 3 3 3 8 7 10 6 7 4 4 7 6 7 6 4 7 4 1 0 2 1 1 3 1 3 3 3 1 6 8 12 10 7 10 11 7 13 11 7 5 5 6 11 10 10 11 14 8 10 11 8 7 11 8 10 10 10
20 18 17 18 20 19 18 14 14 14 14 15 17 16 13 11 4 5 2 2 3 4 3 4 2 1 8 3 2 2 2 4 1 3 7 6 10 7 6 5 3 7 5 3 4 4 4 3 1 4 0 1 0 2 4 7 7 5 2 4 5 9 18 12 11 12 12 13 14 10 6 5 10 11 10 11 9 14 13 11 13 10 9 11 11 10 11 11
22 20 17 17 18 19 17 14 14 13 15 19 20 17 14 9 1 1 1 3 2 0 1 1 3 2 4 4 5 4 5 5 2 2 4 7 4 4 5 3 4 6 3 2 3 6 2 2 2 3 5 4 7 6 8 8 5 5 3 2 7 8 9 10 11 10 16 12 8 10 9 9 11 11 10 10 9 13 16 12 9 8 9 7 10 10 11 10
21 18 17 16 15 18 18 14 12 12 11 11 7 2 3 1 1 1 1 2 4 7 8 4 8 5 10 10 7 3 4 4 4 5 4 5 6 7 5 4 3 3 2 4 1 3 2 3 7 8 8 9 8 8 9 10 3 5 8 3 3 6 8 8 8 12 14 8 7 7 7 10 11 11 11 11 9 9 15 15 11 7 7 6 8 10 13 11
18 18 18 15 14 14 15 13 11 10 9 5 4 1 1 1 2 2 2 7 8 9 8 6 13 12 9 6 8 9 2 4 1 4 4 1 6 11 4 4 4 4 5 4 4 2 3 4 7 8 9 9 9 7 6 6 3 6 6 6 5 6 6 11 12 17 13 8 4 5 10 9 10 9 10 9 12 10 13 13 11 7 5 4 5 11 13 10
19 18 17 15 15 14 12 10 11 8 8 4 1 1 3 3 4 3 1 5 4 12 11 13 9 9 11 13 15 10 8 2 5 4 1 2 5 7 2 3 5 7 4 3 1 2 3 7 8 10 9 6 6 6 6 5 7 7 9 6 2 4 7 8 12 16 12 6 7 10 10 7 8 8 8 11 12 9 10 12 13 10 7 5 3 10 8 9
20 18 17 16 15 16 13 9 8 7 3 1 0 1 4 5 1 3 2 1 7 4 5 6 6 10 11 11 9 10 8 4 5 3 4 3 4 3 5 3 7 3 3 4 6 3 4 6 11 9 6 7 7 8 7 5 6 7 7 4 5 3 10 4 13 15 13 6 10 10 9 6 5 3 6 7 8 7 8 8 6 3 3 4 4 7 9 8
18 18 18 17 16 16 15 11 7 1 3 3 3 7 7 5 7 7 2 1 3 6 5 7 7 4 7 3 2 2 4 2 3 6 2 5 6 4 3 4 5 3 6 4 5 7 7 8 12 9 8 8 9 8 7 7 8 8 9 6 2 9 12 19 13 15 11 1 15 13 8 3 5 8 6 4 4 7 7 6 5 5 5 4 2 2 2 8
17 17 17 16 17 17 17 11 2 2 2 1 6 9 10 10 6 4 1 3 2 5 4 3 4 4 5 3 1 1 0 1 4 3 4 6 4 3 2 2 3 6 5 6 4 4 9 12 5 9 10 7 7 8 9 8 8 8 7 9 6 7 4 10 7 16 6 7 9 17 5 4 5 8 9 6 3 7 7 9 10 10 6 2 6 3 1 1
17 16 17 15 17 17 16 2 1 4 7 6 7 8 6 4 5 5 3 1 3 4 1 3 2 2 1 1 0 1 1 2 4 5 6 7 5 3 2 2 3 8 9 5 6 4 9 9 6 11 11 9 8 7 9 7 9 7 5 9 10 11 10 11 5 7 9 10 13 9 8 3 1 9 9 10 10 9 6 9 9 10 8 8 9 7 4 4
15 15 15 15 13 13 5 1 2 7 4 4 3 3 6 3 1 2 3 1 1 1 1 0 1 0 0 2 3 3 0 4 2 3 4 5 6 2 0 4 3 2 4 2 1 5 5 7 8 10 10 10 7 8 9 8 7 6 4 6 10 12 18 14 14 9 5 4 8 5 2 7 4 9 9 11 11 11 12 11 11 10 11 10 11 10 7 6
15 14 13 13 11 4 2 4 8 5 6 5 5 8 9 4 3 5 2 1 0 3 1 2 1 2 1 2 4 3 3 1 1 3 8 6 4 4 3 3 2 2 1 0 6 8 7 6 7 9 10 7 8 8 8 6 7 3 4 5 1 10 10 13 19 14 8 7 8 5 5 5 2 3 8 11 11 12 14 14 13 13 13 13 15 14 11 9
14 13 12 11 14 6 5 2 1 6 6 3 9 9 7 6 4 3 2 2 2 0 2 2 4 0 1 1 2 1 3 1 3 3 2 4 2 3 5 5 3 4 5 6 7 5 4 8 9 10 8 9 7 8 8 7 8 2 4 3 5 3 6 19 14 14 7 7 8 10 5 6 2 3 7 9 10 13 15 15 15 14 15 14 14 14 13 9
14 12 11 10 8 3 2 1 6 10 6 8 9 9 6 2 3 3 3 1 0 2 1 1 1 2 3 3 2 3 4 4 2 1 1 2 2 1 1 3 1 2 4 2 5 9 7 5 5 4 9 9 8 10 7 11 7 3 6 4 2 2 1 4 12 10 5 6 10 16 8 7 4 8 11 13 14 18 12 9 10 12 13 14 15 16 13 11
14 10 10 5 1 1 1 5 10 7 7 4 8 7 3 3 2 3 1 1 1 2 1 1 1 1 4 4 1 1 2 3 0 5 2 4 2 1 1 1 1 3 2 4 6 6 2 3 2 3 8 7 9 6 7 8 2 2 1 1 4 6 3 2 2 4 5 4 9 14 11 9 5 4 6 13 3 11 14 15 16 16 16 14 13 13 14 13
18 12 7 4 3 4 3 7 6 2 7 8 7 2 3 3 2 3 2 1 0 1 1 2 2 1 1 3 5 1 3 1 4 4 6 4 3 3 1 3 2 1 3 2 5 4 3 7 3 6 4 8 4 6 8 3 2 2 1 4 3 2 2 2 1 5 5 6 6 12 11 2 2 3 11 17 5 10 12 12 16 16 14 13 12 12 12 12
22 14 12 9 6 2 7 12 8 7 5 6 3 2 4 5 2 3 2 2 1 0 4 5 2 3 1 1 1 2 3 1 2 2 5 1 2 4 4 7 4 5 1 2 2 2 6 4 4 3 4 1 5 6 2 6 1 3 2 3 3 2 1 1 1 1 1 3 1 14 7 1 2 2 5 11 6 7 10 8 10 13 13 13 11 10 10 10
22 15 8 6 9 9 6 3 3 3 6 4 5 8 5 4 3 5 3 1 2 1 1 5 5 4 4 3 3 1 0 3 2 1 3 1 2 0 2 2 2 1 2 2 3 1 2 3 4 5 2 3 2 5 5 4 1 3 5 7 6 4 2 2 2 4 5 6 2 8 4 2 3 3 6 7 2 5 4 4 5 7 9 10 10 9 9 10
25 15 6 3 5 9 14 10 5 1 0 4 7 5 3 2 2 3 4 5 2 4 8 7 5 3 2 2 2 3 1 2 1 3 2 3 3 1 0 2 4 1 1 1 2 0 1 4 3 4 3 3 5 2 4 4 4 2 1 6 4 4 5 2 5 5 3 5 6 5 1 0 1 3 4 1 11 7 6 6 7 5 4 5 6 8 9 9
13 1 5 3 3 5 7 5 3 3 3 6 6 4 2 1 1 1 1 1 2 3 5 7 10 8 7 1 1 4 5 1 1 3 2 7 7 9 6 2 5 7 3 0 1 1 3 3 4 8 5 4 6 4 1 6 2 2 1 1 3 6 6 1 2 1 5 7 3 1 1 2 4 4 9 7 9 7 3 8 8 6 5 4 6 7 7 5
4 7 3 2 3 6 4 6 6 6 5 5 3 2 3 2 3 2 1 3 1 3 4 7 6 3 5 5 3 1 3 4 6 3 5 5 5 9 8 2 8 8 6 2 1 1 1 5 4 3 5 4 3 3 4 5 5 1 1 6 4 2 5 4 3 2 3 6 1 2 4 1 3 2 6 5 7 4 5 8 9 8 7 5 2 3 3 6
5 3 3 5 11 8 4 7 9 4 2 3 0 4 1 1 4 2 1 1 1 6 4 2 0 4 4 3 9 10 3 4 3 3 3 4 3 2 5 6 8 7 7 3 1 3 1 2 4 2 5 6 2 4 3 1 1 1 2 2 0 1 2 3 2 1 1 2 2 3 4 1 2 1 4 8 7 4 6 9 10 9 7 5 3 3 7 11
2 1 4 7 4 4 3 9 5 4 1 2 2 3 3 2 5 3 4 1 2 3 4 0 1 2 2 5 4 4 8 4 2 2 1 3 4 5 4 5 5 11 10 7 4 3 2 1 5 5 6 3 3 4 2 2 4 2 2 4 0 4 2 3 4 3 7 3 4 2 2 2 0 2 1 6 8 7 6 9 10 10 8 6 6 8 10 8
2 2 4 5 2 3 3 9 5 2 1 1 2 2 3 3 3 5 2 2 0 3 0 1 1 3 4 2 2 1 4 3 3 1 3 1 2 4 9 6 4 8 9 4 2 1 2 1 1 8 8 4 2 2 2 4 2 2 3 1 0 1 2 3 0 2 3 6 4 6 1 4 1 2 5 9 9 4 6 6 8 9 9 10 10 9 10 9
1 1 5 4 6 3 8 6 3 2 1 3 1 3 2 1 4 7 6 7 2 2 4 2 1 3 0 4 7 3 4 5 4 3 2 3 4 1 4 4 4 7 6 5 8 6 3 3 1 5 6 2 2 2 1 2 5 1 2 3 3 0 1 1 4 3 3 7 5 6 2 1 1 3 6 12 9 5 4 3 9 10 10 8 9 11 10 8
1 2 5 4 0 2 5 2 1 1 1 3 3 1 1 4 2 8 8 4 5 3 1 3 1 2 2 1 1 4 2 3 5 4 4 4 2 2 4 7 5 3 3 2 2 2 1 2 1 3 1 4 5 9 6 5 3 2 3 3 2 3 4 4 1 2 4 5 7 3 7 1 1 1 5 9 12 8 4 5 7 8 8 7 8 10 9 8
0 5 9 9 9 3 3 2 0 2 3 3 3 1 1 1 2 3 4 6 3 3 1 1 1 2 2 1 1 2 3 3 3 3 0 2 3 2 3 7 7 6 2 4 1 3 2 3 3 5 6 6 4 3 9 11 3 3 2 2 4 3 1 3 3 3 6 4 5 3 5 0 1 1 4 7 9 12 9 5 4 7 6 7 8 9 8 7
2 3 7 6 0 5 5 2 3 2 3 1 3 2 2 1 3 4 3 4 2 3 1 0 2 1 1 1 2 3 0 2 4 5 3 1 2 4 6 4 6 3 4 1 1 5 2 2 3 3 5 7 9 9 12 11 7 3 3 4 4 7 6 2 6 3 7 2 7 8 7 3 4 2 4 8 10 12 10 8 8 8 5 6 7 7 7 6
3 3 4 7 4 3 2 3 4 2 1 3 1 3 1 3 4 3 2 3 3 2 3 2 0 2 4 6 5 5 6 2 1 2 3 1 1 1 7 7 5 3 2 4 5 4 2 0 4 3 3 4 2 4 3 6 8 6 2 5 10 10 9 6 1 2 4 1 8 6 3 2 4 2 3 5 7 8 8 8 7 7 6 6 6 7 6 6
2 2 5 5 5 2 1 1 3 4 5 3 4 3 3 1 2 4 6 2 3 3 1 3 3 4 3 3 4 5 5 6 6 3 5 3 2 2 2 5 7 5 9 10 9 2 1 1 4 4 3 3 3 3 5 2 3 4 6 12 12 12 5 5 4 4 4 3 4 2 16 12 7 8 5 9 6 9 8 6 8 8 7 7 6 6 6 6
0 2 2 4 6 4 0 3 4 6 2 1 2 2 3 3 1 3 9 2 4 3 3 6 3 2 2 5 2 3 2 2 6 4 3 3 3 1 6 5 8 13 12 7 10 3 3 5 5 3 2 2 4 5 4 3 3 4 8 8 11 12 5 5 5 3 5 9 3 1 15 17 13 9 10 11 8 7 6 7 7 7 7 7 7 7 9 8
2 2 1 1 2 2 5 5 5 6 4 5 2 2 4 5 6 3 4 4 2 5 3 5 10 7 4 5 3 3 3 1 2 2 3 4 4 6 4 9 8 11 8 4 5 4 2 3 4 2 6 4 2 4 4 2 1 2 4 9 12 9 9 5 2 5 4 7 8 10 11 14 11 10 11 11 11 9 8 8 7 8 8 7 8 9 9 9
1 1 2 4 1 3 1 1 2 6 5 4 1 4 5 8 6 2 2 5 5 5 4 3 7 8 6 5 5 2 2 2 2 1 2 2 2 2 4 4 5 9 6 4 4 1 1 2 4 3 3 7 8 7 6 5 4 6 8 8 11 10 6 6 3 4 4 4 13 17 7 8 9 10 9 9 8 10 8 7 8 7 7 8 9 11 10 9
4 2 5 5 2 3 4 4 2 5 4 3 2 4 2 3 5 4 3 4 3 4 4 6 7 7 7 7 5 5 2 1 2 2 2 2 3 3 0 0 2 5 6 4 2 5 3 2 8 4 4 6 7 8 8 6 6 7 10 9 11 8 6 9 7 9 13 13 14 12 11 8 3 8 7 6 8 9 9 9 8 6 7 10 11 11 11 9
3 1 0 3 6 5 5 4 3 5 3 3 4 3 3 3 4 1 1 0 3 1 3 2 3 5 5 8 7 4 3 2 1 2 4 1 2 2 1 1 1 1 4 5 3 4 7 3 3 3 4 5 5 8 8 7 4 11 11 12 6 5 4 2 5 3 8 10 12 13 11 7 6 8 9 9 11 11 10 8 6 6 7 8 10 10 9 8
2 2 1 1 1 1 4 4 1 4 4 0 3 4 2 3 3 2 2 4 1 2 3 6 4 8 4 7 4 3 3 4 3 4 3 3 0 2 1 1 3 2 1 3 1 3 2 2 3 3 4 1 6 7 5 5 5 7 8 8 4 6 3 5 6 4 13 16 13 11 5 4 7 8 11 8 10 9 9 9 9 7 7 9 10 10 9 8
Wind_Direction
340 342 339 337 337 335 333 331 330 328 327 328 327 325 325 325 324 324 325 325 327 326 327 327 327 326 325 325 325 326 328 324 313 293 221 240 188 211 169 197 167 203 213 225 175 127 165 194 217 227 207 159 225 222 232 220 141 140 212 153 289 200 147 211 161 170 132 142 154 175 160 102 117 169 192 10 19 85 105 112 104 109 107 117 125 128 130 134
340 340 338 336 334 334 331 331 329 327 325 325 325 324 323 323 323 322 322 325 326 327 327 327 326 324 324 323 324 325 330 298 281 261 236 203 187 192 201 225 218 191 161 198 187 175 157 188 202 184 181 210 210 255 154 174 138 159 189 116 252 179 224 151 150 125 142 150 155 173 147 117 167 162 167 113 73 38 114 123 124 110 115 117 125 134 138 144
339 338 338 335 334 332 331 330 327 326 325 324 322 322 321 320 321 321 322 323 325 327 327 327 325 324 322 321 322 327 331 307 260 260 260 225 198 188 208 214 228 163 164 171 207 179 181 182 180 175 194 230 229 242 225 209 160 200 120 211 250 206 195 186 142 141 130 145 144 143 153 140 168 196 164 121 119 131 143 139 127 130 132 139 139 141 144 148
339 337 337 334 332 331 330 328 328 325 325 322 320 319 319 318 319 321 320 321 323 326 327 325 323 323 320 318 321 328 296 277 293 249 248 179 186 187 190 199 190 172 169 205 180 195 235 217 200 180 175 215 234 228 234 217 207 193 146 205 234 163 98 111 128 128 136 146 137 136 139 131 63 230 110 130 119 190 167 152 145 144 143 144 145 142 147 148
337 336 335 333 332 329 329 327 326 325 323 321 318 318 317 317 317 318 318 321 323 323 324 324 324 320 321 314 321 331 305 31 184 223 257 345 174 179 182 187 183 170 174 169 245 277 279 263 216 207 222 220 229 234 239 224 219 176 214 214 168 119 92 134 123 133 136 136 131 142 140 140 168 71 91 144 134 155 163 156 148 144 143 144 145 150 153 146
337 336 334 332 330 328 325 325 324 322 321 319 317 315 317 316 315 315 317 318 319 318 322 323 323 322 320 321 307 295 305 109 278 282 357 12 157 169 172 172 174 165 163 183 180 154 201 248 229 226 210 226 187 199 227 210 216 230 217 173 143 173 127 135 129 137 135 140 138 151 136 122 85 100 127 152 115 187 217 161 149 146 144 142 145 151 152 149
336 333 331 329 328 326 324 323 321 319 318 317 316 315 314 313 311 314 316 317 314 316 319 321 321 319 321 306 274 331 20 275 293 251 54 79 148 154 162 165 161 147 156 173 198 195 197 217 208 223 229 218 237 218 236 236 217 215 213 160 156 186 135 141 134 140 134 135 142 122 151 102 133 105 212 80 133 77 198 149 146 141 139 143 145 152 152 151
333 332 331 330 327 325 323 321 319 316 315 316 314 312 311 311 311 314 315 314 312 313 318 317 318 318 325 320 270 358 75 252 248 258 114 111 137 150 151 146 145 147 162 195 175 202 169 206 216 219 230 192 209 186 252 223 232 190 163 176 165 184 137 139 131 125 124 108 111 127 114 113 103 116 116 48 55 56 90 138 142 141 142 144 145 147 150 151
333 332 331 329 327 326 323 320 316 315 313 313 310 310 309 309 311 312 313 310 310 310 311 311 313 306 318 301 19 355 255 231 225 135 122 119 135 136 136 145 160 156 186 191 207 193 161 233 231 225 206 219 258 274 280 260 307 186 160 174 172 161 149 130 132 132 129 124 131 107 95 84 109 104 49 22 31 82 115 125 143 144 146 149 151 152 155 158
331 331 329 329 326 326 323 319 316 314 313 310 309 306 308 309 310 310 310 308 306 308 302 294 279 284 293 298 185 98 263 194 121 135 132 132 133 141 158 148 161 165 161 207 193 198 209 219 206 208 240 280 249 240 241 152 220 151 161 161 169 149 141 140 137 138 133 133 139 119 118 119 158 10 130 67 350 13 115 128 147 147 151 152 153 158 163 167
333 332 330 329 327 324 323 320 316 313 310 308 306 306 305 308 307 307 307 306 305 305 294 276 245 190 192 238 147 228 261 111 157 143 140 139 138 154 181 165 174 165 184 174 204 203 225 241 262 325 250 228 293 277 181 230 359 165 150 143 146 151 140 140 133 135 130 132 133 116 113 114 311 3 144 129 191 178 130 139 148 152 154 151 154 160 166 164
333 331 329 327 327 325 322 319 317 313 311 307 305 304 303 305 306 306 303 305 303 298 293 226 183 182 283 195 231 228 309 11 93 134 144 146 162 184 179 168 176 182 172 181 211 218 226 240 267 275 248 3 285 312 290 334 11 128 138 139 145 153 145 149 149 151 144 126 141 126 98 51 329 126 137 125 135 127 127 148 149 149 151 150 153 157 167 163
332 331 329 327 326 325 322 320 317 315 311 307 303 299 301 301 303 302 301 302 290 282 263 194 176 205 175 336 227 242 282 289 313 109 190 172 160 173 178 171 188 195 185 186 208 217 220 232 233 247 256 277 262 337 273 321 236 137 146 134 144 156 156 162 143 151 136 154 157 153 114 216 32 124 137 136 120 99 66 152 158 151 162 154 156 161 171 167
331 330 331 328 326 325 324 321 318 314 310 304 300 298 299 300 300 297 293 282 282 306 178 166 161 176 144 241 265 227 240 225 245 241 209 197 145 178 184 200 193 206 219 215 241 263 270 244 244 246 257 256 263 274 331 330 318 96 143 125 154 153 186 163 157 157 138 166 178 122 134 218 197 143 142 147 144 158 162 161 89 213 173 160 159 167 174 170
330 329 330 328 327 325 325 321 318 312 308 306 302 297 299 296 295 288 278 278 259 171 145 141 219 144 70 267 268 264 250 221 218 214 192 179 160 136 191 196 193 210 215 228 248 255 256 267 264 244 255 251 332 42 333 356 354 141 116 136 167 151 160 160 167 175 148 182 199 103 108 177 188 168 158 158 143 148 137 169 139 256 200 168 165 168 175 170
327 326 327 329 328 326 324 324 317 313 312 307 300 298 295 288 282 276 265 241 194 133 138 124 207 161 356 289 272 314 309 141 224 214 195 174 160 170 190 187 192 212 210 244 242 264 265 277 267 198 230 297 7 81 8 11 335 130 128 160 168 162 161 155 209 193 182 153 197 198 153 118 201 173 152 161 148 146 142 168 180 225 185 170 179 167 173 170
327 327 327 329 329 328 326 323 319 316 309 305 304 293 288 280 274 255 244 221 186 159 209 87 127 196 5 248 309 304 240 240 225 143 182 185 167 184 159 155 189 203 209 238 243 268 275 260 282 280 71 148 184 91 44 332 308 317 120 150 163 170 161 189 172 195 165 166 183 206 134 204 145 159 154 164 154 134 160 176 192 218 178 177 187 175 172 178
327 326 326 327 329 330 326 321 319 319 313 305 299 289 290 286 274 300 219 192 162 178 248 274 234 312 278 315 313 266 308 277 221 190 183 197 173 179 147 178 176 188 189 248 260 239 252 230 68 181 142 208 297 70 133 213 191 207 228 125 140 160 170 167 169 185 160 199 175 177 150 160 154 152 161 164 150 138 167 178 190 218 183 183 190 183 173 180
327 327 323 326 328 328 326 323 321 319 315 312 296 278 255 262 281 186 117 162 138 47 22 207 124 152 126 226 256 272 275 229 243 182 211 190 179 178 178 147 151 161 180 153 284 168 271 57 100 70 176 216 238 174 193 223 185 213 197 169 139 147 188 186 186 152 168 183 187 163 165 159 159 158 156 156 151 139 162 180 206 212 193 196 190 175 173 175
324 322 325 325 323 327 326 324 325 322 337 329 346 4 109 39 33 36 5 243 218 213 250 182 211 267 305 286 272 241 250 225 195 243 212 184 158 171 188 149 140 166 155 187 275 220 140 126 181 196 202 210 228 207 208 236 280 321 317 325 153 171 191 182 176 157 167 163 182 170 147 153 167 164 160 153 138 139 155 175 189 190 190 198 190 169 172 170
321 323 325 323 322 320 322 324 326 329 337 319 305 354 83 127 31 338 223 222 225 239 238 223 200 216 233 285 295 298 318 239 168 225 229 135 121 152 186 156 145 188 218 178 170 261 94 156 217 208 210 209 226 231 227 260 283 270 279 283 271 165 194 185 171 165 173 154 164 156 148 164 167 162 157 151 150 167 171 171 187 182 184 171 186 165 170 168
323 323 324 326 322 320 319 321 329 326 315 275 13 348 273 217 194 205 316 318 295 231 222 240 239 266 261 256 263 251 233 133 220 288 278 109 159 148 224 145 163 190 231 192 126 131 149 198 227 220 216 213 232 248 244 226 242 243 238 255 277 244 193 165 152 167 172 157 148 150 147 156 167 165 157 164 170 172 177 179 181 179 177 158 192 158 169 154
324 322 324 327 325 319 323 324 329 323 283 191 95 255 249 235 357 314 241 272 265 255 220 230 259 246 261 265 250 213 166 169 204 241 220 94 159 158 165 120 170 183 200 184 167 155 180 257 235 224 213 212 235 238 250 258 254 242 256 249 220 202 132 149 172 173 176 182 154 148 120 139 145 149 157 172 171 171 167 174 178 192 152 159 187 166 157 149
321 323 324 326 325 322 318 332 314 87 227 224 255 221 255 286 309 346 8 261 294 298 213 223 205 242 253 262 303 79 126 177 164 203 224 125 161 166 145 157 175 181 203 192 165 175 203 219 214 215 217 205 222 232 224 230 252 250 235 221 166 176 169 162 178 176 161 44 124 110 88 98 182 168 178 170 166 158 163 130 68 4 33 10 3 32 136 153
319 322 325 325 326 322 318 320 62 241 181 206 246 252 248 258 268 242 70 337 339 280 214 236 166 237 247 251 282 44 178 169 226 175 178 149 142 140 213 172 131 202 201 210 189 200 245 246 201 210 222 215 217 237 225 193 229 256 234 211 183 161 71 0 162 156 139 136 170 136 97 209 223 197 185 151 179 187 164 146 160 180 182 99 304 249 143 223
321 321 326 326 324 326 306 7 340 342 317 276 247 272 279 254 244 219 101 25 325 258 353 228 71 273 40 332 78 143 141 268 218 188 177 168 170 162 158 220 148 192 209 195 202 204 227 239 184 206 217 223 221 228 235 181 218 223 257 184 169 172 147 132 28 335 152 165 192 197 135 174 181 208 186 171 185 190 172 174 168 179 171 156 211 255 231 203
320 322 325 323 327 334 7 287 348 301 322 289 246 284 290 275 181 66 59 333 15 304 241 270 138 198 54 218 172 77 32 272 253 146 176 160 190 122 131 244 219 192 188 159 184 254 217 220 206 211 214 217 215 229 241 188 198 238 214 165 175 161 153 154 119 246 254 349 147 203 59 134 187 226 193 173 177 189 190 186 179 186 178 180 190 222 226 217
319 321 320 317 315 5 203 313 340 312 242 252 323 323 319 335 63 53 82 53 15 288 160 209 227 310 322 248 171 166 193 136 30 230 179 188 119 136 179 218 185 222 309 235 207 254 219 214 197 201 214 210 212 218 233 182 202 195 191 116 192 148 156 145 155 194 216 121 166 212 109 63 237 221 185 168 185 197 199 190 186 186 184 184 187 203 215 223
319 319 317 310 311 301 204 196 327 255 242 300 312 315 322 339 70 98 118 97 251 213 347 63 298 139 257 347 303 286 310 316 261 235 200 173 182 130 203 227 223 253 240 185 221 266 260 215 199 187 197 218 220 227 218 207 240 224 184 213 260 240 158 166 177 181 174 125 190 210 172 112 232 199 161 181 197 208 203 194 187 184 185 183 184 192 207 213
317 317 316 312 309 122 134 209 234 241 286 305 305 309 321 50 37 41 10 34 48 281 227 240 182 233 152 152 278 169 234 265 199 130 115 150 229 36 187 175 161 285 299 241 218 235 246 280 221 190 197 213 219 226 209 232 202 290 333 308 345 3 216 149 177 169 112 179 199 200 182 132 184 206 186 172 209 198 188 189 185 179 188 188 185 185 193 203
315 314 307 306 237 334 352 290 254 237 240 288 311 309 346 38 108 100 68 232 283 261 1 354 263 327 115 170 252 275 209 283 183 152 160 217 14 116 19 7 13 307 303 316 284 267 272 303 283 218 172 207 203 233 241 235 111 124 77 26 16 311 11 90 58 97 152 228 230 196 175 154 149 235 223 224 54 175 183 188 185 183 185 186 188 187 189 193
315 316 286 204 244 348 168 243 257 11 348 329 323 12 66 23 6 74 297 254 28 273 215 250 251 140 188 223 177 131 182 252 195 147 164 175 155 164 184 173 173 14 313 258 257 328 299 262 217 253 185 136 152 187 262 297 37 179 66 40 92 254 16 267 129 172 161 186 219 171 154 85 288 253 221 203 201 177 188 185 186 185 181 181 185 188 187 191
316 316 293 231 211 216 237 249 298 321 322 327 346 57 61 86 23 273 321 312 308 233 13 325 226 211 204 211 314 230 207 195 282 232 138 132 120 206 197 187 186 148 202 283 344 358 285 264 240 251 201 194 117 153 183 234 333 108 173 132 98 235 30 201 256 166 336 324 334 149 123 117 252 321 4 195 199 179 181 187 182 178 176 177 179 179 184 191
310 320 316 189 191 212 242 234 254 348 344 358 51 25 53 54 293 284 346 327 325 256 345 353 299 187 149 165 242 130 49 271 162 237 110 163 73 96 266 268 163 280 128 258 276 215 204 257 298 189 214 249 135 158 174 147 39 226 156 156 179 146 155 204 188 155 194 167 53 9 100 235 126 213 333 345 260 161 128 127 156 166 168 170 169 171 179 188
311 298 233 227 231 238 236 246 249 266 16 40 44 74 75 330 265 334 347 327 321 358 17 352 13 51 216 195 256 100 156 285 166 152 41 71 348 24 22 345 344 181 123 37 285 48 249 227 267 296 228 186 169 173 132 81 357 273 156 94 106 223 142 155 203 149 198 107 42 359 87 250 201 246 334 21 46 47 103 97 112 118 129 146 164 179 182 185
322 305 173 241 188 257 189 203 146 156 90 51 56 27 14 216 270 308 334 255 327 18 352 7 21 27 7 291 66 7 29 84 301 76 68 98 45 27 345 10 31 31 28 71 229 22 5 342 298 324 338 202 190 147 157 113 132 271 60 187 208 183 121 102 313 306 109 69 35 61 3 342 275 353 10 30 62 29 48 113 113 109 109 133 171 185 183 139
340 331 356 286 257 249 187 145 140 108 65 87 80 330 226 299 224 252 287 81 26 44 42 43 358 20 1 320 336 354 346 48 347 83 24 353 41 2 341 4 28 23 43 98 358 139 128 253 294 13 339 315 244 124 147 155 146 77 106 241 275 128 115 124 203 335 67 100 123 28 3 355 31 148 343 7 97 42 41 85 83 95 107 83 94 131 107 81
325 319 260 261 253 256 156 137 116 75 76 62 275 270 252 209 305 3 55 111 353 54 70 69 294 46 11 340 2 349 319 83 314 63 73 25 133 313 4 340 359 10 351 19 124 322 94 17 306 342 320 303 7 106 72 3 92 173 194 218 79 252 237 315 102 340 65 72 109 4 341 47 77 316 12 353 3 37 56 69 71 75 84 100 117 121 91 67
271 35 330 256 243 238 197 136 102 104 61 37 274 7 284 288 305 320 25 154 106 103 62 4 125 348 70 33 340 339 345 72 353 75 75 35 35 336 17 331 345 346 347 7 57 313 47 119 306 299 349 289 358 79 187 284 323 358 31 5 285 107 159 130 200 172 108 150 111 33 22 256 237 156 93 63 26 11 355 74 70 65 60 60 57 59 75 93
347 34 295 262 247 231 131 114 97 68 83 241 237 223 235 273 298 301 18 95 354 70 209 59 2 54 21 58 63 293 339 14 103 310 84 17 137 330 10 2 1 335 334 30 74 5 57 71 309 287 319 28 6 349 180 161 171 357 21 326 345 2 223 123 297 135 149 158 146 135 159 280 267 210 105 80 76 40 328 65 81 76 67 62 56 64 76 78
321 115 265 284 326 109 96 77 82 139 186 263 211 245 317 299 351 336 332 60 78 136 138 182 110 80 230 10 5 18 33 351 3 53 56 51 51 6 351 359 342 354 326 23 42 8 41 18 95 300 9 25 248 232 294 242 146 140 164 224 175 90 50 150 269 330 75 105 160 133 194 283 81 186 111 103 90 39 4 29 82 76 71 63 62 59 57 66
49 359 262 251 234 52 82 146 293 162 160 233 244 230 14 13 14 354 357 355 81 88 133 88 44 121 51 75 207 6 63 23 351 49 20 108 17 120 316 356 24 325 38 29 298 286 109 154 85 327 235 260 254 285 270 254 210 146 122 305 256 142 116 95 114 269 53 64 83 79 107 242 35 90 112 119 118 110 31 338 69 78 73 70 66 69 67 63
82 220 259 280 289 140 98 232 26 124 205 233 215 51 19 37 25 351 3 352 24 10 48 61 52 58 14 194 345 60 66 58 24 24 289 46 41 19 306 24 356 15 82 344 358 311 221 57 9 303 310 274 308 328 28 24 5 24 10 30 13 352 156 165 175 174 113 141 86 53 67 203 281 125 134 121 124 126 128 128 85 70 67 64 64 68 71 63
260 276 311 297 310 125 90 222 296 267 262 321 67 88 60 112 45 19 8 332 33 342 38 326 16 104 190 62 73 24 58 83 20 56 350 8 46 328 43 20 27 25 34 270 100 308 41 326 107 4 354 340 350 359 5 353 22 55 330 338 13 13 12 134 96 42 87 234 158 130 151 184 189 71 145 148 144 134 139 136 116 98 75 64 62 68 70 63
290 266 249 296 352 73 159 198 160 156 357 118 110 120 58 8 28 87 39 322 359 24 8 352 249 82 44 54 47 26 26 118 158 349 66 316 179 355 3 18 22 19 303 195 230 263 85 241 86 97 110 78 37 48 2 317 312 292 272 0 16 18 4 15 85 26 99 206 113 106 67 109 129 114 131 138 124 114 113 113 104 106 104 90 74 62 62 64
24 15 303 330 353 37 342 290 121 100 56 13 31 2 109 111 335 0 34 345 20 351 22 337 22 86 82 68 71 56 25 29 71 355 20 336 335 359 320 355 31 18 10 5 9 56 116 48 79 139 147 170 195 216 243 211 315 12 333 30 5 4 359 101 98 84 131 137 65 184 145 158 169 190 153 148 136 126 128 119 113 109 98 87 82 71 65 60
302 75 355 332 323 27 209 346 53 55 66 140 88 308 29 81 23 25 1 67 2 24 2 15 348 54 54 60 74 73 46 30 24 65 345 347 296 345 9 26 17 9 2 11 6 60 51 53 13 50 342 229 188 207 241 347 352 324 20 10 15 4 17 67 112 179 165 86 360 331 151 146 177 173 156 149 141 133 132 127 120 110 106 102 93 85 77 72
43 272 92 166 154 283 30 358 54 65 33 59 57 6 71 65 53 33 326 354 347 36 59 1 35 34 69 116 109 74 354 39 38 35 325 0 7 356 5 354 33 354 7 19 11 82 113 65 336 41 10 3 312 336 345 345 9 350 25 31 25 356 31 52 59 158 131 142 170 175 168 149 171 166 153 140 143 145 142 139 125 118 117 114 101 89 79 67
85 275 275 339 69 289 241 296 97 108 67 67 51 50 68 72 62 58 61 338 7 356 49 78 44 44 39 36 84 91 39 61 335 335 35 324 20 28 9 337 349 1 23 15 14 44 74 9 328 42 18 353 353 356 14 16 3 20 18 38 32 13 20 63 48 179 173 153 149 152 156 139 149 145 137 143 138 134 131 123 119 125 124 114 107 98 88 79
343 8 324 342 351 296 322 21 41 66 80 39 79 49 91 74 67 355 23 44 2 349 7 74 79 62 54 46 48 70 44 167 170 73 329 72 340 49 114 169 263 329 17 11 357 339 85 320 344 34 45 347 330 345 2 2 15 44 23 36 50 19 41 53 71 68 71 83 115 115 112 104 95 123 121 116 111 114 120 121 130 138 130 116 107 104 104 100
281 217 207 335 342 322 348 26 32 102 77 6 84 82 81 84 72 9 56 151 96 54 18 73 75 67 45 58 47 34 4 48 94 44 325 107 76 293 119 287 108 56 359 3 8 333 40 313 22 62 69 336 337 344 336 348 59 51 26 14 18 50 47 23 86 155 116 129 123 113 109 124 136 121 110 109 116 123 128 134 136 129 120 110 105 106 109 113
316 278 358 154 270 325 9 338 344 57 52 221 119 75 103 56 108 82 24 321 23 55 63 81 80 84 22 43 21 6 350 333 329 315 312 311 247 295 128 165 99 114 3 18 333 51 343 25 30 11 74 287 299 353 340 0 31 23 0 336 327 76 83 58 41 88 132 135 129 129 160 145 130 123 110 104 108 112 117 127 123 112 107 100 97 96 102 112